When you browse on this site, cookies collect data to enhance your experience and personalize the content and advertising you see.
Visit our Privacy Policy to learn more. By continuing to use the site, you agree to this use of cookies and data.
  • en France
  • Liste des pays
  • À 7 jours
  • Température de l'eau
  • Carte météo
  • Widgets météo
  • user-avatar
    Se connecter

    Météo par heure à Buncrana

    Ce jour, 31 Mai, Dimanche

    Heure Température Précipitation Vent Pression Humidité
    00:00 +10°C° 0 mm 2 m/s 759 mmHg 76%
    01:00 +10°C° 0 mm 2 m/s 759 mmHg 79%
    02:00 +10°C° 0 mm 3 m/s 759 mmHg 81%
    03:00 +9°C° 0 mm 3 m/s 759 mmHg 84%
    04:00 +10°C° 0 mm 3 m/s 759 mmHg 84%
    05:00 +11°C° 0 mm 3 m/s 759 mmHg 85%
    06:00 +12°C° 0 mm 3 m/s 759 mmHg 86%
    07:00 +13°C° 0 mm 3 m/s 760 mmHg 82%
    08:00 +15°C° 0 mm 4 m/s 760 mmHg 78%
    09:00 +18°C° 0 mm 4 m/s 760 mmHg 75%
    10:00 +17°C° 0 mm 5 m/s 760 mmHg 72%
    11:00 +19°C° 0 mm 5 m/s 761 mmHg 69%
    12:00 +20°C° 0 mm 6 m/s 761 mmHg 66%
    13:00 +20°C° 0 mm 5 m/s 761 mmHg 64%
    14:00 +20°C° 0 mm 5 m/s 761 mmHg 62%
    15:00 +20°C° 0 mm 5 m/s 761 mmHg 60%
    16:00 +19°C° 0 mm 5 m/s 761 mmHg 62%
    17:00 +19°C° 0 mm 5 m/s 761 mmHg 65%
    18:00 +19°C° 0 mm 4 m/s 761 mmHg 67%
    19:00 +17°C° 0 mm 4 m/s 761 mmHg 74%
    20:00 +14°C° 0 mm 3 m/s 761 mmHg 80%
    21:00 +13°C° 0 mm 3 m/s 761 mmHg 86%
    22:00 +13°C° 0 mm 2 m/s 761 mmHg 86%
    23:00 +13°C° 0 mm 2 m/s 761 mmHg 86%

    Demain, 1 Juin, Lundi

    Heure Température Précipitation Vent Pression Humidité
    00:00 +12°C° 0 mm 2 m/s 762 mmHg 86%
    01:00 +12°C° 0 mm 2 m/s 762 mmHg 86%
    02:00 +12°C° 0 mm 2 m/s 762 mmHg 86%
    03:00 +10°C° 0 mm 2 m/s 762 mmHg 86%
    04:00 +12°C° 0 mm 2 m/s 762 mmHg 85%
    05:00 +13°C° 0 mm 2 m/s 762 mmHg 83%
    06:00 +14°C° 0 mm 2 m/s 762 mmHg 82%
    07:00 +15°C° 0 mm 2 m/s 762 mmHg 78%
    08:00 +17°C° 0 mm 2 m/s 762 mmHg 74%
    09:00 +20°C° 0 mm 1 m/s 762 mmHg 70%
    10:00 +20°C° 0.1 mm 2 m/s 762 mmHg 67%
    11:00 +20°C° 0.1 mm 2 m/s 762 mmHg 64%
    12:00 +21°C° 0.1 mm 2 m/s 763 mmHg 61%
    13:00 +21°C° 0.1 mm 2 m/s 762 mmHg 64%
    14:00 +21°C° 0.1 mm 2 m/s 762 mmHg 66%
    15:00 +21°C° 0.1 mm 2 m/s 762 mmHg 68%
    16:00 +20°C° 0.3 mm 2 m/s 762 mmHg 73%
    17:00 +19°C° 0.3 mm 2 m/s 762 mmHg 77%
    18:00 +20°C° 0.3 mm 1 m/s 762 mmHg 81%
    19:00 +19°C° 0.1 mm 1 m/s 762 mmHg 83%
    20:00 +18°C° 0.1 mm 1 m/s 762 mmHg 86%
    21:00 +16°C° 0.1 mm 1 m/s 762 mmHg 89%
    22:00 +15°C° 0 mm 1 m/s 762 mmHg 89%
    23:00 +14°C° 0 mm 1 m/s 761 mmHg 89%

    Après-demain, 2 Juin, Mardi

    Heure Température Précipitation Vent Pression Humidité
    00:00 +14°C° 0 mm 1 m/s 761 mmHg 90%
    01:00 +13°C° 0 mm 1 m/s 761 mmHg 91%
    02:00 +13°C° 0 mm 1 m/s 761 mmHg 91%
    03:00 +12°C° 0 mm 1 m/s 760 mmHg 92%
    04:00 +13°C° 0 mm 1 m/s 760 mmHg 91%
    05:00 +13°C° 0 mm 1 m/s 760 mmHg 91%
    06:00 +14°C° 0 mm 1 m/s 760 mmHg 90%
    07:00 +15°C° 0 mm 2 m/s 760 mmHg 85%
    08:00 +16°C° 0 mm 2 m/s 760 mmHg 81%
    09:00 +18°C° 0 mm 2 m/s 759 mmHg 76%
    10:00 +17°C° 0.3 mm 3 m/s 759 mmHg 79%
    11:00 +17°C° 0.3 mm 3 m/s 759 mmHg 81%
    12:00 +17°C° 0.3 mm 4 m/s 759 mmHg 83%
    13:00 +17°C° 0.1 mm 4 m/s 758 mmHg 82%
    14:00 +15°C° 0.1 mm 5 m/s 758 mmHg 81%
    15:00 +15°C° 0.1 mm 5 m/s 758 mmHg 80%
    16:00 +14°C° 0 mm 5 m/s 757 mmHg 82%
    17:00 +13°C° 0 mm 5 m/s 757 mmHg 85%
    18:00 +13°C° 0 mm 5 m/s 757 mmHg 87%
    19:00 +11°C° 0 mm 6 m/s 757 mmHg 87%
    20:00 +10°C° 0 mm 7 m/s 757 mmHg 86%
    21:00 +9°C° 0 mm 7 m/s 757 mmHg 86%
    22:00 +9°C° 0 mm 7 m/s 757 mmHg 85%
    23:00 +9°C° 0 mm 8 m/s 757 mmHg 84%

    3 Juin, Mercredi

    Heure Température Précipitation Vent Pression Humidité
    00:00 +9°C° 0 mm 8 m/s 756 mmHg 84%
    01:00 +9°C° 0.1 mm 8 m/s 756 mmHg 86%
    02:00 +9°C° 0.1 mm 8 m/s 756 mmHg 88%
    03:00 +9°C° 0.1 mm 8 m/s 756 mmHg 91%
    04:00 +9°C° 0.3 mm 8 m/s 756 mmHg 91%
    05:00 +9°C° 0.3 mm 7 m/s 756 mmHg 92%
    06:00 +9°C° 0.3 mm 7 m/s 756 mmHg 92%
    07:00 +9°C° 0.1 mm 7 m/s 756 mmHg 91%
    08:00 +10°C° 0.1 mm 6 m/s 756 mmHg 89%
    09:00 +10°C° 0.1 mm 6 m/s 756 mmHg 88%
    10:00 +11°C° 0 mm 6 m/s 756 mmHg 85%
    11:00 +11°C° 0 mm 6 m/s 757 mmHg 82%
    12:00 +13°C° 0 mm 6 m/s 757 mmHg 79%
    13:00 +13°C° 0 mm 6 m/s 757 mmHg 77%
    14:00 +13°C° 0 mm 6 m/s 757 mmHg 76%
    15:00 +13°C° 0 mm 5 m/s 756 mmHg 75%
    16:00 +13°C° 0 mm 5 m/s 756 mmHg 74%
    17:00 +14°C° 0 mm 5 m/s 756 mmHg 74%
    18:00 +14°C° 0 mm 5 m/s 756 mmHg 73%
    19:00 +12°C° 0 mm 4 m/s 757 mmHg 79%
    20:00 +11°C° 0 mm 3 m/s 757 mmHg 85%
    21:00 +10°C° 0 mm 3 m/s 757 mmHg 91%
    22:00 +9°C° 0 mm 2 m/s 757 mmHg 92%
    23:00 +8°C° 0 mm 2 m/s 757 mmHg 92%

    4 Juin, Jeudi

    Heure Température Précipitation Vent Pression Humidité
    00:00 +8°C° 0 mm 2 m/s 757 mmHg 93%
    01:00 +7°C° 0 mm 2 m/s 757 mmHg 93%
    02:00 +7°C° 0 mm 2 m/s 757 mmHg 94%
    03:00 +7°C° 0 mm 2 m/s 757 mmHg 94%
    04:00 +8°C° 0 mm 2 m/s 756 mmHg 93%
    05:00 +8°C° 0 mm 2 m/s 756 mmHg 92%
    06:00 +9°C° 0 mm 2 m/s 756 mmHg 90%
    07:00 +10°C° 0 mm 2 m/s 756 mmHg 83%
    08:00 +11°C° 0 mm 3 m/s 756 mmHg 76%
    09:00 +13°C° 0 mm 3 m/s 756 mmHg 69%
    10:00 +13°C° 0 mm 3 m/s 756 mmHg 65%
    11:00 +14°C° 0 mm 3 m/s 756 mmHg 61%
    12:00 +14°C° 0 mm 4 m/s 755 mmHg 57%
    13:00 +14°C° 0 mm 4 m/s 755 mmHg 57%
    14:00 +15°C° 0 mm 4 m/s 755 mmHg 57%
    15:00 +15°C° 0 mm 4 m/s 754 mmHg 56%
    16:00 +14°C° 0 mm 4 m/s 754 mmHg 61%
    17:00 +13°C° 0 mm 5 m/s 754 mmHg 65%
    18:00 +13°C° 0 mm 5 m/s 754 mmHg 70%
    19:00 +12°C° 0 mm 5 m/s 753 mmHg 77%
    20:00 +11°C° 0 mm 4 m/s 753 mmHg 84%
    21:00 +10°C° 0 mm 4 m/s 753 mmHg 91%
    22:00 +10°C° 0 mm 4 m/s 752 mmHg 91%
    23:00 +11°C° 0 mm 4 m/s 752 mmHg 91%

    5 Juin, Vendredi

    Heure Température Précipitation Vent Pression Humidité
    00:00 +11°C° 0 mm 4 m/s 752 mmHg 90%
    01:00 +11°C° 0.1 mm 4 m/s 751 mmHg 91%
    02:00 +11°C° 0.1 mm 4 m/s 751 mmHg 92%
    03:00 +11°C° 0.1 mm 4 m/s 751 mmHg 92%
    04:00 +11°C° 0.1 mm 4 m/s 751 mmHg 91%
    05:00 +10°C° 0.1 mm 5 m/s 751 mmHg 91%
    06:00 +10°C° 0.1 mm 5 m/s 751 mmHg 90%
    07:00 +10°C° 0.1 mm 6 m/s 751 mmHg 87%
    08:00 +10°C° 0.1 mm 6 m/s 751 mmHg 84%
    09:00 +10°C° 0.1 mm 7 m/s 751 mmHg 81%
    10:00 +10°C° 0 mm 7 m/s 752 mmHg 75%
    11:00 +11°C° 0 mm 8 m/s 752 mmHg 69%
    12:00 +12°C° 0 mm 8 m/s 752 mmHg 63%
    13:00 +12°C° 0 mm 8 m/s 752 mmHg 63%
    14:00 +12°C° 0 mm 9 m/s 753 mmHg 63%
    15:00 +11°C° 0 mm 9 m/s 753 mmHg 63%
    16:00 +11°C° 0 mm 9 m/s 753 mmHg 64%
    17:00 +10°C° 0 mm 9 m/s 753 mmHg 65%
    18:00 +10°C° 0 mm 9 m/s 754 mmHg 66%
    19:00 +9°C° 0 mm 8 m/s 754 mmHg 70%
    20:00 +8°C° 0 mm 7 m/s 755 mmHg 74%
    21:00 +6°C° 0 mm 7 m/s 755 mmHg 77%
    22:00 +5°C° 0 mm 6 m/s 755 mmHg 78%
    23:00 +5°C° 0 mm 6 m/s 756 mmHg 79%
    Voir plus